KUIPER-00078

导读

KUIPER-00078是美国亚马逊“柯伊伯计划”低轨卫星互联网项目中的一颗卫星,于2025年7月16日在美国佛罗里达州空军东部试验场发射升空,目前处于运行状态。它运行在近地轨道,平均高度约636公里,轨道倾角51.9度,周期约97.3分钟,旨在为全球提供高速低延迟互联网接入,是该项目大规模部署阶段的一颗组网卫星。

Basic Information
目录编号:
64825
目录名称:
KUIPER-00078
国际标识:
2025-151K
轨道中心:
EARTH
卫星名称:
KUIPER-00078
卫星全名:
KUIPER-00078
卫星状态:
在轨 (已飞行415 天)
发射日期:
2025-07-16 UTC
国别 :
美国 (US)
星等 :
--
Orbit Information
数据来源 国际轨道数据 AOE轨道数据
星历时间 2026-09-04T13:06:44+0800
8小时前
查看轨道信息
2026-09-03T23:00:00+0800
22小时前
查看轨道信息
半长轴 7007.649km 7007.685km
偏心率 0.0000768 0.0001079
轨道倾角 51.901° 51.897°
近地点辐角 59.764° 14.569°
升交点赤经 226.164° 228.764°
平近点角 300.340° 90.854°
近地点 628.973km 628.791km
远地点 630.051km 630.305km
周期 97.301分钟 97.302分钟
每日圈数 14.799406 14.799292
Detailed Information
使用方式:
暂无
2D Orbit Map
3D Orbit Map
Orbit Altitude Analysis Chart
Orbit Inclination Analysis Chart
Orbit Comprehensive Analysis Chart
View Comprehensive Chart